This demonstration page uses our WeatherBlox Daily Observations layout. Learn more.

Left ArrowRight Arrow

39.01783, -85.05884

Hourly Observations for April 5, 2020

Temp ( °F °C ) Dew Point ( °F °C ) Humidity (%) Winds ( mph kmh ) Pressure ( in mb ) Visibility ( mi km ) Precip ( " mm )
12:52 am 00:52 Cloudy 54 12.2 47 8.3 77 77 N 7 11 30.02 1017 9 14 N/A
1:52 am 01:52 Cloudy 54 12.2 47 8.3 77 77 NNW 8 13 30.01 1016 9 14 N/A
2:52 am 02:52 Cloudy 52 11.1 46 7.8 80 80 N 9 15 30.01 1016 9 14 N/A
3:52 am 03:52 Cloudy 51 10.6 46 7.8 83 83 N 8 13 30.01 1016 8 13 N/A
4:52 am 04:52 Cloudy with Light Rain 50 10 46 7.8 86 86 NNE 8 13 30.00 1016 6 10 0.02 0.51
5:39 am 05:39 Cloudy 50 10 46 7.8 86 86 NNW 8 13 30.04 1017 8 13 0.00 0.00
5:52 am 05:52 Cloudy 50 10 46 7.8 86 86 NNW 9 15 30.02 1017 8 13 0.00 0.00
6:21 am 06:21 Cloudy 49 9.4 46 7.8 90 90 NNW 10 17 30.06 1018 8 13 N/A
6:52 am 06:52 Cloudy 49 9.4 46 7.8 90 90 NNW 10 17 30.05 1018 7 11 N/A
7:52 am 07:52 Cloudy with Light Rain 48 8.9 45 7.2 89 89 NNE 8 13 30.05 1018 4 6 0.08 2.03
8:52 am 08:52 Mostly Cloudy with Mist and Fog 50 10 46 7.8 86 86 NNE 9 15 30.06 1018 4 6 0.01 0.25
9:52 am 09:52 Cloudy with Mist and Fog 49 9.4 46 7.8 90 90 N 7 11 30.08 1019 4 6 N/A
10:52 am 10:52 Cloudy with Mist and Fog 50 10 46 7.8 86 86 NNW 8 13 30.10 1019 4 6 N/A
11:52 am 11:52 Cloudy with Haze 51 10.6 46 7.8 83 83 NNW 7 11 30.11 1020 6 10 N/A
12:35 pm 12:35 Cloudy 54 12.2 47 8.3 77 77 N 7 11 30.11 1020 7 11 N/A
12:52 pm 12:52 Cloudy 54 12.2 47 8.3 77 77 NNW 7 11 30.10 1019 7 11 N/A
1:52 pm 13:52 Mostly Cloudy 58 14.4 49 9.4 72 72 N 7 11 30.09 1019 8 13 N/A
2:52 pm 14:52 Cloudy 57 13.9 48 8.9 72 72 N 8 13 30.09 1019 10 16 N/A
3:52 pm 15:52 Cloudy 57 13.9 47 8.3 69 69 N 9 15 30.09 1019 10 16 N/A
4:52 pm 16:52 Cloudy 57 13.9 48 8.9 72 72 N 8 13 30.08 1019 10 16 N/A
5:52 pm 17:52 Cloudy 56 13.3 47 8.3 72 72 N 9 15 30.08 1019 10 16 N/A
6:52 pm 18:52 Cloudy 56 13.3 47 8.3 72 72 NNW 9 15 30.09 1019 10 16 N/A
7:52 pm 19:52 Cloudy 54 12.2 47 8.3 77 77 NNW 8 13 30.10 1019 10 16 N/A
8:52 pm 20:52 Cloudy 54 12.2 46 7.8 75 75 N 8 13 30.10 1019 10 16 N/A
9:52 pm 21:52 Mostly Cloudy 52 11.1 47 8.3 83 83 N 8 13 30.11 1020 7 11 N/A
10:52 pm 22:52 Mostly Cloudy 52 11.1 47 8.3 83 83 NNE 9 15 30.11 1020 7 11 N/A
10:59 pm 22:59 Cloudy 52 11.1 47 8.3 83 83 NNE 8 13 30.13 1020 7 11 N/A
11:52 pm 23:52 Cloudy 52 11.1 46 7.8 80 80 NNE 8 13 30.11 1020 8 13 N/A

Powered by AerisWeather